S55G-5 Weather Reports


time (UTC)temp
C
wind
direction
speed
KPH
gust
KPH
rain 1hr
cm
rain 24hr
cm
rain mn
cm
humidity
%
barometer
mb
20260507070006 17 96 3.2 9.7 0.00 1.63 0.00 82 1013.4
20260507065403 18 96 3.2 6.4 0.00 1.63 0.00 83 1013.3
20260507064503 17 94 3.2 9.7 0.00 1.75 0.00 83 1013.5
20260507063603 17 116 4.8 11.3 0.00 1.83 0.00 84 1013.2
20260507062703 17 101 3.2 6.4 0.00 1.98 0.00 84 1013.3
20260507061803 17 101 1.6 6.4 0.00 2.01 0.00 85 1013.2
20260507060903 17 107 1.6 3.2 0.00 2.01 0.00 87 1013.3
20260507060217 16 94 1.6 3.2 0.00 2.01 0.00 87 1013.2
20260507055403 16 90 0.0 3.2 0.00 2.01 0.00 88 1013.3
20260507054718 16 89 3.2 3.2 0.00 2.01 0.00 88 1013.2
20260507053603 15 58 0.0 3.2 0.00 2.01 0.00 93 1012.9
20260507052703 15 87 1.6 3.2 0.00 2.06 0.00 95 1012.9
20260507052018 14 86 1.6 3.2 0.00 2.13 0.00 95 1013.1
20260507051117 13 71 0.0 3.2 0.00 2.13 0.00 95 1012.9
20260507050003 13 97 0.0 3.2 0.00 2.13 0.00 95 1012.9
20260507045403 13 84 0.0 3.2 0.00 2.13 0.00 95 1012.8
20260507044503 13 72 1.6 3.2 0.00 2.13 0.00 95 1012.5
20260507043818 13 72 1.6 3.2 0.00 2.13 0.00 95 1012.5
20260507042703 13 94 0.0 3.2 0.00 2.13 0.00 95 1012.5
20260507041803 13 68 3.2 3.2 0.00 2.13 0.00 95 1012.4
20260507040903 13 95 0.0 3.2 0.00 2.13 0.00 95 1012.5
20260507040003 13 319 0.0 3.2 0.00 2.13 0.00 94 1012.3
20260507035403 13 41 1.6 3.2 0.00 2.13 0.00 94 1012.1
20260507034503 13 84 0.0 3.2 0.00 2.13 0.00 93 1012.4
20260507033603 14 85 1.6 3.2 0.00 2.13 0.00 93 1012.2
20260507032703 14 139 3.2 3.2 0.00 2.13 0.00 92 1012.4
20260507031803 15 39 1.6 6.4 0.00 2.13 0.00 91 1012.6
20260507031118 15 50 3.2 6.4 0.00 2.13 0.00 91 1012.5
20260507030004 15 23 1.6 3.2 0.00 2.13 0.00 91 1012.3
20260507025403 15 42 0.0 3.2 0.00 2.13 0.00 90 1012.2
20260507024503 15 80 1.6 6.4 0.00 2.13 0.00 92 1012.3
20260507023603 14 45 0.0 3.2 0.00 2.13 0.00 92 1012.2
20260507022703 15 86 3.2 6.4 0.00 2.13 0.00 91 1012.3
20260507021803 15 105 0.0 3.2 0.00 2.13 0.00 90 1012.4
20260507020903 15 81 1.6 3.2 0.00 2.13 0.00 90 1012.3
20260507020003 15 74 1.6 3.2 0.00 2.13 0.00 89 1012.4
20260507015403 15 85 0.0 3.2 0.00 2.13 0.00 90 1012.5
20260507014718 15 100 3.2 6.4 0.00 2.13 0.00 90 1012.3
20260507013817 15 54 3.2 9.7 0.00 2.13 0.00 90 1012.4
20260507012703 15 71 3.2 6.4 0.00 2.13 0.00 89 1012.2
20260507011803 15 74 3.2 11.3 0.00 2.13 0.00 90 1012.2
20260507010903 15 60 0.0 3.2 0.00 2.13 0.00 91 1012.4
20260507010004 14 7 1.6 3.2 0.00 2.13 0.00 91 1012.3
20260507005403 14 84 1.6 6.4 0.00 2.13 0.00 91 1012.3
20260507004503 14 101 3.2 6.4 0.00 2.13 0.00 90 1012.2
20260507003603 15 70 3.2 6.4 0.00 2.13 0.00 90 1012.5
20260507002703 15 99 0.0 3.2 0.00 2.13 0.00 89 1012.1
20260507001803 15 85 3.2 3.2 0.00 2.13 0.00 89 1012.1
20260507000903 14 55 1.6 3.2 0.00 2.13 0.00 90 1012.3
20260507000003 14 108 1.6 3.2 0.00 2.13 0.00 90 1012.4
20260506235403 15 101 1.6 6.4 0.00 2.13 0.00 89 1012.4
20260506234718 15 94 3.2 6.4 0.00 2.13 0.00 89 1012.4
20260506233817 15 101 3.2 6.4 0.00 2.13 0.00 88 1012.6
20260506232918 15 91 3.2 6.4 0.00 2.13 0.00 89 1012.6
20260506232018 15 89 1.6 6.4 0.00 2.13 0.00 89 1012.8
20260506230903 14 55 1.6 3.2 0.00 2.13 0.00 90 1012.9
20260506230218 15 82 0.0 6.4 0.00 2.13 0.00 89 1012.8
20260506225403 15 116 0.0 6.4 0.00 2.13 0.00 90 1012.8
20260506224503 15 82 3.2 9.7 0.00 2.13 0.00 89 1012.5
20260506223603 15 116 3.2 3.2 0.00 2.13 0.00 89 1012.9
20260506222703 15 90 1.6 6.4 0.00 2.13 0.00 88 1012.7
20260506222017 15 94 3.2 6.4 0.00 2.13 0.00 89 1012.5
20260506220903 15 90 1.6 3.2 0.00 2.13 0.00 90 1012.7
20260506220003 15 37 0.0 3.2 0.00 2.13 0.00 89 1012.7
20260506215403 15 61 0.0 6.4 0.00 2.13 2.13 89 1012.6
20260506214503 15 54 3.2 6.4 0.00 2.13 2.13 89 1012.5
20260506213818 15 9 1.6 6.4 0.00 2.13 2.13 89 1012.5
20260506212703 15 10 1.6 3.2 0.00 2.13 2.13 90 1012.5
20260506212017 15 327 1.6 6.4 0.00 2.13 2.13 90 1012.3
20260506210903 15 38 3.2 6.4 0.00 2.13 2.13 87 1012.3
20260506210003 15 29 0.0 3.2 0.00 2.13 2.13 87 1012.3
20260506205403 15 33 1.6 6.4 0.00 2.13 2.13 88 1012.5
20260506204503 15 70 0.0 6.4 0.00 2.13 2.13 91 1012.3
20260506203603 15 25 1.6 3.2 0.00 2.13 2.13 93 1012.5
20260506202703 15 34 1.6 3.2 0.00 2.13 2.13 93 1012.4
20260506201803 15 352 0.0 6.4 0.00 2.16 2.13 93 1012.3
20260506200903 15 14 0.0 6.4 0.00 2.18 2.13 93 1012.3
20260506200003 15 292 1.6 3.2 0.00 2.18 2.13 92 1012.4
20260506195403 15 289 1.6 3.2 0.00 2.18 2.13 92 1012.4
20260506194718 15 280 0.0 3.2 0.00 2.18 2.13 91 1012.3
20260506193817 15 324 1.6 3.2 0.00 2.18 2.13 91 1011.9
20260506192703 15 313 3.2 6.4 0.00 2.18 2.13 91 1011.9
20260506191803 15 14 0.0 6.4 0.00 2.18 2.13 91 1011.6
20260506190903 15 17 3.2 6.4 0.00 2.18 2.13 91 1011.6
20260506190004 16 90 4.8 12.9 0.00 2.18 2.13 90 1011.4
20260506185403 16 133 4.8 14.5 0.00 2.18 2.13 88 1011.3
20260506184503 16 141 8.0 24.1 0.00 2.18 2.13 89 1011.1
20260506183817 15 158 3.2 20.9 0.00 2.18 2.13 93 1011.0
20260506182703 15 90 3.2 9.7 0.00 2.18 2.13 96 1011.1
20260506181803 15 80 3.2 6.4 0.00 2.18 2.13 96 1011.3
20260506180903 15 99 0.0 3.2 0.00 2.18 2.13 96 1011.2
20260506180004 15 32 1.6 3.2 0.20 2.18 2.13 95 1011.1
20260506175618 15 25 0.0 6.4 0.33 2.18 2.13 95 1011.1
20260506174503 15 37 3.2 6.4 0.33 2.18 2.13 94 1011.2
20260506173603 15 140 1.6 6.4 0.33 2.18 2.13 94 1011.1
20260506172703 16 240 1.6 6.4 0.33 2.18 2.13 94 1011.0
20260506172017 16 256 3.2 11.3 0.33 2.18 2.13 94 1010.9
20260506170903 16 235 3.2 24.1 0.33 2.18 2.13 92 1010.8
20260506170003 17 150 8.0 17.7 0.13 1.98 1.93 87 1010.1
20260506165403 17 134 6.4 17.7 0.00 1.85 1.80 83 1010.1
20260506164717 17 119 6.4 12.9 0.00 1.85 1.80 83 1009.8
20260506163818 18 152 3.2 14.5 0.00 1.85 1.80 82 1010.1
20260506162917 18 191 3.2 14.5 0.00 1.85 1.80 81 1010.4
20260506162017 18 196 3.2 9.7 0.00 1.85 1.80 81 1010.6
20260506161118 18 125 4.8 9.7 0.00 1.85 1.80 81 1010.6
20260506160003 18 127 6.4 12.9 0.00 1.88 1.80 80 1010.7
20260506155403 19 133 6.4 12.9 0.00 1.88 1.80 79 1010.7
20260506154503 19 132 0.0 17.7 0.00 1.88 1.80 80 1010.9
20260506153818 18 114 4.8 17.7 0.00 1.88 1.80 82 1010.6
20260506152703 19 113 6.4 11.3 0.00 1.88 1.80 81 1011.0
20260506151803 19 122 3.2 9.7 0.00 1.93 1.80 81 1011.2
20260506150903 19 141 1.6 6.4 0.00 1.93 1.80 79 1011.3
20260506150217 20 170 3.2 12.9 0.00 1.93 1.80 81 1011.3
20260506145403 18 108 6.4 12.9 0.00 1.96 1.80 82 1011.6
20260506144503 18 113 1.6 6.4 0.00 1.96 1.80 84 1011.5
20260506143603 17 77 0.0 6.4 0.00 1.96 1.80 86 1011.6
20260506142917 17 53 3.2 6.4 0.00 1.96 1.80 88 1011.5
20260506141803 16 49 1.6 3.2 0.00 1.98 1.80 88 1011.5
20260506141118 16 33 1.6 6.4 0.00 1.98 1.80 88 1011.5
20260506140003 16 347 3.2 3.2 0.00 2.01 1.80 88 1011.9
20260506135403 16 2 1.6 3.2 0.00 2.01 1.80 88 1011.8
20260506134503 16 356 1.6 6.4 0.00 2.03 1.80 89 1011.9
20260506133603 16 68 3.2 6.4 0.00 2.03 1.80 88 1011.7
20260506132703 16 44 3.2 9.7 0.00 2.03 1.80 88 1011.8
20260506131804 17 129 4.8 6.4 0.00 2.03 1.80 85 1012.2
20260506130903 17 177 3.2 12.9 0.00 2.03 1.80 85 1012.3
20260506130004 17 190 4.8 9.7 0.00 2.03 1.80 84 1012.2
20260506125403 17 195 3.2 9.7 0.00 2.03 1.80 85 1012.2
20260506124503 17 218 3.2 6.4 0.00 2.03 1.80 85 1012.3
20260506123603 16 181 1.6 14.5 0.00 2.06 1.80 87 1012.4
20260506122703 16 206 3.2 17.7 0.00 2.06 1.80 90 1012.4
20260506121803 16 190 8.0 17.7 0.00 2.06 1.80 88 1012.5
20260506120903 16 289 3.2 12.9 0.00 2.06 1.80 89 1012.5
20260506120004 16 208 4.8 12.9 0.00 2.06 1.80 88 1012.3
20260506115617 16 198 6.4 12.9 0.00 2.06 1.80 87 1012.1
20260506114503 16 173 3.2 12.9 0.00 2.06 1.80 86 1012.2
20260506113603 16 162 4.8 14.5 0.00 2.06 1.80 86 1012.4
20260506112703 16 196 3.2 20.9 0.00 2.11 1.80 87 1012.5
20260506111803 16 173 6.4 20.9 0.00 2.11 1.80 86 1012.6
20260506110903 16 171 3.2 14.5 0.00 2.11 1.80 87 1012.5
20260506110003 16 150 8.0 29.0 0.00 2.11 1.80 88 1012.3
20260506105403 16 130 6.4 29.0 0.00 2.11 1.80 87 1012.6
20260506104503 16 137 8.0 17.7 0.00 2.11 1.80 89 1012.5
20260506103603 16 134 6.4 14.5 0.03 2.11 1.80 90 1012.5
20260506102703 16 143 6.4 17.7 0.03 2.11 1.80 91 1012.8
20260506101803 15 133 6.4 20.9 0.15 2.11 1.80 92 1012.8
20260506100903 15 128 11.3 17.7 0.18 2.11 1.80 92 1012.7
20260506100003 15 151 4.8 17.7 0.23 2.11 1.80 93 1012.9
20260506095403 15 124 4.8 17.7 0.28 2.13 1.80 94 1013.0
20260506094718 14 147 3.2 14.5 0.30 2.13 1.80 95 1012.8
20260506093603 14 122 6.4 12.9 0.38 2.11 1.78 96 1013.1
20260506092917 14 112 1.6 14.5 0.48 2.11 1.78 96 1012.9
20260506091803 14 87 3.2 6.4 0.48 1.98 1.65 97 1012.8
20260506090903 14 95 3.2 9.7 0.51 1.96 1.63 97 1013.1
20260506090003 14 69 3.2 11.3 0.53 1.88 1.55 97 1012.8
20260506085403 14 72 3.2 9.7 0.56 1.85 1.52 97 1012.8
20260506084503 14 75 3.2 6.4 0.64 1.83 1.50 97 1013.0
20260506083603 14 84 3.2 3.2 0.53 1.70 1.37 97 1012.7
20260506082703 14 101 3.2 3.2 0.51 1.60 1.27 97 1012.9
20260506081803 14 98 3.2 6.4 0.51 1.50 1.17 97 1013.0
20260506080903 14 97 1.6 3.2 0.53 1.45 1.12 98 1012.9
20260506072703 14 45 1.6 6.4 0.61 1.09 0.76 97 1012.6
20260506071803 14 11 3.2 6.4 0.53 0.99 0.66 97 1012.6
20260506070903 14 28 3.2 6.4 0.46 0.89 0.56 97 1012.5
20260506070218 14 27 3.2 3.2 0.38 0.84 0.51 97 1012.6